sat.trackr.live / text

‹ back to catalog

STARLINK-30927

NORAD 58382 · 2023-178J

PAYLOAD ACTIVE UNKNOWN

§ Identity

Operator
Country
US
Launch date
2023-11-20
Launch site
AFWTR
Launch vehicle
Mass (kg)
RCS (m²)

Purposes: comms

External: N2YO · Heavens-Above · Gunter

§ Orbital elements

Epoch: 2026-05-24T22:28:57.563040Z

Period
93.85 min
Inclination
53.1616°
Eccentricity
0.0001327
Mean motion
15.34389385 rev/d
Perigee alt
461.8 km
Apogee alt
463.6 km
Semi-major
6,840.9 km
B*
3.8796e-5
RAAN
6.3153°
Arg perigee
96.2004°
Mean anomaly
263.9150°
Rev number
14,155

§ Raw data

STARLINK-309271 58382U 23178J   26144.93677735  .00000934  00000+0  38796-4 0  99932 58382  53.1616   6.3153 0001327  96.2004 263.9150 15.34389385141553

JSON: /api/v1/satellites/58382 · /tle

For live sub-satellite position, see the globe view (requires WebGL).

§ Visibility from observer

Set your observer location to see the next 7 days of passes ≥ 10°. The values pass through the URL so the page stays shareable.

No JS? Fill the form by hand. The geolocation button needs JavaScript.